User: anonymous   Login
Location: Prairie State College
(41.5244°N, 87.6382°W)
Time: 18:42:32
(UTC-05:00)
Language:

ARGOS Delta rocket - Orbit

View from above orbital plane
View from above orbital plane
View from above satellite
View from above satellite

Ground track
Ground track

The orbit data is extracted from the following two-line orbital elements,

1 25637U 99008D   15153.74012609  .00000207  00000-0  58042-4 0  9995
2 25637 096.4731 218.4805 0144519 132.1163 339.6283 14.46273917857855
Epoch (UTC): 02 June 2015 17:45:46
Eccentricity: 0.0144519
inclination: 96.4731°
perigee height: 635 km
apogee height: 840 km
right ascension of ascending node: 218.4805°
argument of perigee: 132.1163°
revolutions per day: 14.46273917
mean anomaly at epoch: 339.6283°
orbit number at epoch: 85785

The dashed part of the orbit path shows where the satellite is in the earth's shadow,  

DLR